Regional Weather Roundup
Issued by NWS

Home | Current Version | Previous Version | Graphics & Text | Print | Product List | Glossary On
Versions: 1 2 3 4 5 6 7 8 9 10 11 12 13 14 15 16 17 18 19 20 21 22 23 24 25 26 27 28 29 30 31 32 33 34 35 36 37 38 39 40 41 42 43 44 45 46 47 48 49 50
000
ASUS43 KFSD 171010
RWRSD

WEATHER ROUNDUP FOR SOUTH DAKOTA
NATIONAL WEATHER SERVICE SIOUX FALLS SD
400 AM CST TUE JAN 17 2017

NOTE: "FAIR" INDICATES FEW OR NO CLOUDS BELOW 12,000 FEET WITH NO
SIGNIFICANT WEATHER AND/OR OBSTRUCTIONS TO VISIBILITY.


SDZ001>005-009-010-012>017-171100-
NORTHWEST AND NORTH CENTRAL SOUTH DAKOTA

CITY           SKY/WX    TMP DP  RH WIND       PRES   REMARKS
BUFFALO          N/A     20   9  62 W9        29.89F WCI   9
FAITH            N/A     14   8  77 SW6       30.00F WCI   5
MOBRIDGE       CLOUDY    11   6  81 N8        29.99S WCI  -1
$$

SDZ012>016-024>037-041>051-057-063-072>074-171100-
SOUTHWEST AND SOUTH CENTRAL SOUTH DAKOTA

CITY           SKY/WX    TMP DP  RH WIND       PRES   REMARKS
RAPID CTY ARPT CLOUDY    14   8  77 CALM      30.00F
PIERRE         CLOUDY    12   9  87 SW7       30.02F WCI   1
CUSTER         CLEAR     24   3  40 W5        29.96F WCI  18
ELLSWORTH AFB  CLOUDY    17  10  71 S5        29.98F WCI  10
PHILIP         CLOUDY    13   8  81 W12       30.04F WCI  -1
PINE RIDGE     CLOUDY     2  -1  88 E6        30.04F WCI  -9
SPEARFISH      FAIR      21   5  49 CALM      29.96F
WINNER         FAIR      18  13  80 W7        30.05F WCI   9
$$

SDZ004>011-016>023-039-040-171100-
NORTHEAST SOUTH DAKOTA

CITY           SKY/WX    TMP DP  RH WIND       PRES   REMARKS
ABERDEEN       CLOUDY     0  -5  79 W6        30.02F WCI -12
WATERTOWN      CLOUDY    -1  -6  79 CALM      29.98F
BROOKINGS      CLOUDY     6   4  91 NW5       29.99R WCI  -3
SISSETON         N/A      3   1  91 CALM      30.00F
$$

SDZ017-020-022-023-036>040-048>070-171100-
SOUTHEAST SOUTH DAKOTA

CITY           SKY/WX    TMP DP  RH WIND       PRES   REMARKS
SIOUX FALLS    CLOUDY    19  18  95 NW8       30.00R FOG     WCI   9
HURON          CLOUDY     2   0  91 CALM      30.04F
CHAMBERLAIN    CLOUDY    13  10  90 W5        30.05F WCI   5
MITCHELL       CLOUDY    10   7  87 W7        30.07R WCI  -1
YANKTON        CLOUDY    16   9  73 CALM      30.05R
$$

ABBREVIATIONS USED IN REMARKS
   TC - TEMPERATURE IN CELSIUS
  WCI - WIND CHILL INDEX
   HX - HEAT INDEX
  VSB - VISIBILITY





USA.gov is the U.S. government's official web portal to all federal, state and local government web resources and services.